Location: Moscow
(55.7500°N, 37.5830°E)
Time: 17:55:08
(UTC+03:00)

Transit 2A - Pass Details

Date: 04 December 2021
Orbit: 591 x 967 km, 66.7° (Epoch: 21 January)

Event Time Altitude Azimuth Distance (km) Brightness Sun altitude
Rises 23:25:46 0° 170° (S) 3,343 - -55.1°
Reaches altitude 10° 23:28:38 10° 155° (SSE) 2,480 - -55.3°
Maximum altitude 23:32:55 22° 107° (ESE) 1,867 - -55.5°
Drops below altitude 10° 23:37:27 10° 60° (ENE) 2,647 - -55.7°
Sets 23:40:37 0° 46° (NE) 3,633 - -55.8°
